Back to catalog

COSMOS 626

AliveMilitaryLEO
NORAD 7005·PAYLOAD·🇷🇺 Russia

Launched Dec 27, 1973 from Baikonur Cosmodrome

Loading…

Next Passes (next 24 hours)

TLE

FreshSource: Space-Track

Epoch: Sep 14, 2026, 08:04 UTC

1 07005U 73108A   26257.33639280 -.00000079  00000-0  61327-5 0  9998
2 07005  65.4363 226.1675 0050051   7.3845 352.7946 13.85520320667002

Track COSMOS 626 in real time with AllMySat

Download on the App Store